Flag for USA

Past Weather in 35°26'50.0"N, 97°33'16.9"W, USA — Yesterday and Last 2 Weeks

Now
76 °F

Passing clouds.


Feels Like: 78 °F
Forecast: 83 / 59 °F
Wind: 13 mph from South

Location: Will Rogers World Airport
Current Time: Sep 26, 2020 at 8:55:06 pm
Latest Report: Sep 26, 2020 at 7:52 pm
Visibility: 10 mi
Pressure29.71 "Hg
Humidity: 62%
Dew Point: 62 °F
Location of 35°26'50.0"N, 97°33'16.9"WLocation

Past Weather in 35°26'50.0"N, 97°33'16.9"W — Graph

°F

35°26'50.0"N, 97°33'16.9"W Temperature Yesterday

Maximum temperature yesterday: 85 °F (at 2:52 pm)
Minimum temperature yesterday: 59 °F (at 3:52 am)
Average temperature yesterday: 70 °F

High & Low Weather Summary for the Past Weeks

 TemperatureHumidityPressure
High88 °F (Sep 26, 2:52 pm)100% (Sep 12, 1:36 am)30.24 "Hg (Sep 12, 1:36 am)
Low52 °F (Sep 20, 6:52 am)35% (Sep 20, 3:52 pm)29.70 "Hg (Sep 26, 5:52 pm)
Average68 °F77%30.05 "Hg
* Reported Sep 11 6:52 pm — Sep 26 6:52 pm, 35°26'50.0"N, 97°33'16.9"W. Weather by CustomWeather, © 2020

Note: Actual official high and low records may vary slightly from our data, if they occured in-between our weather recording intervals... More about our weather records

35°26'50.0"N, 97°33'16.9"W Weather History for the Previous 24 Hours

Scroll right to see more
 ConditionsComfort  
Time TempWeatherWind HumidityBarometerVisibility
6:52 pm
Sat, Sep 26
81 °FPassing clouds.15 mph53%29.70 "Hg10 mi
5:52 pm84 °FPassing clouds.18 mph48%29.70 "Hg10 mi
4:52 pm87 °FPassing clouds.17 mph42%29.71 "Hg10 mi
3:52 pm87 °FPassing clouds.24 mph42%29.72 "Hg10 mi
2:52 pm88 °FPassing clouds.17 mph43%29.75 "Hg10 mi
1:52 pm84 °FSunny.16 mph51%29.78 "Hg10 mi
12:52 pm82 °FSunny.15 mph55%29.80 "Hg10 mi
11:52 am79 °FSunny.15 mph58%29.83 "Hg10 mi
10:52 am75 °FSunny.15 mph66%29.84 "Hg10 mi
9:52 am70 °FSunny.15 mph79%29.84 "Hg10 mi
8:52 am65 °FSunny.13 mph91%29.85 "Hg10 mi
7:52 am62 °FPassing clouds.12 mph93%29.84 "Hg7 mi
6:52 am61 °FClear.9 mph97%29.84 "Hg7 mi
5:52 am61 °FClear.10 mph97%29.84 "Hg8 mi
4:52 am62 °FClear.9 mph96%29.84 "Hg9 mi
3:52 am62 °FClear.10 mph96%29.85 "Hg10 mi
2:52 am63 °FClear.12 mph93%29.85 "Hg10 mi
1:52 am64 °FClear.10 mph94%29.84 "Hg10 mi
12:52 am65 °FClear.12 mph91%29.85 "Hg10 mi
11:52 pm
Fri, Sep 25
67 °FClear.14 mph85%29.86 "Hg10 mi
10:52 pm68 °FClear.13 mph82%29.87 "Hg10 mi
9:52 pm70 °FClear.14 mph79%29.87 "Hg10 mi
8:52 pm72 °FClear.10 mph76%29.86 "Hg10 mi
Weather by CustomWeather, © 2020

See weather overview